Location: Lanoux
(43.1180°N, 1.4255°E)
Time: 02:32:26
(UTC+00:00)

Meteor 2-10 - Pass Details

Date: 16 March 2026
Orbit: 736 x 866 km, 81.2° (Epoch: 13 April)

Event Time Altitude Azimuth Distance (km) Brightness Sun altitude
Rises 19:56:09 0° 226° (SW) 3,296 7.6 -21.3°
Reaches altitude 10° 19:59:06 10° 242° (WSW) 2,346 7.1 -21.9°
Maximum altitude 20:03:06 22° 292° (WNW) 1,658 6.6 -22.5°
Drops below altitude 10° 20:07:03 10° 342° (NNW) 2,298 7.0 -23.2°
Sets 20:09:54 0° 358° (N) 3,210 7.5 -23.7°
